Location: Baia Mare
(47.6567°N, 23.5850°E)
Time: 13:02:32
(UTC+03:00)

ISS - Pass Details

Date: 28 July 2018
Orbit: 402 x 408 km, 51.6° (Epoch: 21 July)

Event Time Altitude Azimuth Distance (km) Brightness Sun altitude
Rises 22:39:11 0° 284° (WNW) 2,322 1.0 -13.0°
Reaches altitude 10° 22:41:21 10° 292° (WNW) 1,463 0.0 -13.3°
Maximum altitude 22:44:27 40° 4° (N) 618 -2.5 -13.6°
Drops below altitude 10° 22:47:35 10° 76° (ENE) 1,465 -1.3 -14.0°
Enters shadow 22:47:49 - 77° (ENE) 1,557 -1.1 -14.0°
